Crossville, TN

5:28 AM CST on December 10, 2016 (GMT -0600)
Crossville Memorial-Whitson

Weather History for KCSV - February, 2013

Change the Weather History Date:

Friday, February 1, 2013

  Actual Average Record
Temperature  
Mean Temperature 23 °F 37 °F  
Max Temperature 32 °F 46 °F 67 °F (1988)
Min Temperature 14 °F 28 °F 0 °F (1971)
Degree Days  
Heating Degree Days 42    
Month to date heating degree days 42  
Since 1 July heating degree days 2432  
Cooling Degree Days 0    
Month to date cooling degree days 0  
Year to date cooling degree days 0  
Moisture  
Dew Point 14 °F    
Average Humidity 74    
Maximum Humidity 92    
Minimum Humidity 55    
Precipitation  
Precipitation 0.01 in 0.16 in 1.60 in (1985)
Month to date precipitation 0.01 0.16  
Year to date precipitation 7.14 4.92  
Sea Level Pressure  
Sea Level Pressure 30.29 in    
Wind  
Wind Speed 7 mph (WNW)    
Max Wind Speed 28 mph    
Max Gust Speed 36 mph    
Visibility 8 miles    
Events Fog , Snow    
T = Trace of Precipitation, MM = Missing Value Source: NWS Daily Summary

Daily Weather History Graph

Daily Weather History Graph

Search for Another Location

Airport or City:

Trip Planner

Search our weather history database for the weather conditions in past years. The results will help you decide how hot, cold, wet, or windy it might be!

Date:

Astronomy

Feb. 01, 2013 Rise Set
Actual Time 6:40 AM CST 5:07 PM CST
Civil Twilight 6:13 AM CST 5:34 PM CST
Nautical Twilight 5:43 AM CST 6:05 PM CST
Astronomical Twilight 5:13 AM CST 6:35 PM CST
Moon 11:00 PM CST (2/1) 9:26 AM CST (2/1)
Length of Visible Light 11h 20m
Length of Day
10h 27m
Waning Gibbous, 70% of the Moon is Illuminated
Feb 1
Waning Gibbous
Feb 3
Last Quarter
Feb 10
New
Feb 17
First Quarter
Feb 25
Full

Hourly Weather History & Observations

Time (CST) Temp. Windchill Dew Point Humidity Pressure Visibility Wind Dir Wind Speed Gust Speed Precip Events Conditions
12:08 AM 30.2 °F 19.8 °F 28.4 °F 93% 30.05 in 0.5 mi WNW 13.8 mph 25.3 mph 0.00 in Fog , Snow Snow
12:46 AM 28.4 °F 18.5 °F 26.6 °F 93% 30.08 in 0.8 mi WNW 11.5 mph 25.3 mph 0.01 in Snow Light Snow
12:50 AM 28.4 °F 18.0 °F 26.6 °F 93% 30.08 in 1.0 mi West 12.7 mph 25.3 mph 0.01 in Snow Light Snow
12:53 AM 28.0 °F 17.5 °F 26.1 °F 92% 30.12 in 1.2 mi WNW 12.7 mph 20.7 mph 0.01 in Snow Light Snow
1:03 AM 28.4 °F 16.6 °F 24.8 °F 86% 30.10 in 2.0 mi WNW 16.1 mph 25.3 mph 0.00 in Snow Light Snow
1:08 AM 28.4 °F 13.8 °F 24.8 °F 86% 30.10 in 1.5 mi WNW 25.3 mph 35.7 mph 0.00 in Snow Light Snow
1:15 AM 26.6 °F 14.7 °F 23.0 °F 86% 30.11 in 3.0 mi WNW 15.0 mph 35.7 mph 0.00 in Snow Light Snow
1:40 AM 26.6 °F 13.4 °F 21.2 °F 80% 30.12 in 10.0 mi WNW 18.4 mph 29.9 mph 0.00 in   Overcast
1:53 AM 25.0 °F 12.2 °F 21.0 °F 85% 30.17 in 10.0 mi WNW 16.1 mph 25.3 mph 0.00 in   Overcast
2:00 AM 24.8 °F 13.4 °F 19.4 °F 80% 30.14 in 10.0 mi WNW 12.7 mph 23.0 mph N/A   Overcast
2:53 AM 21.9 °F 9.8 °F 14.0 °F 72% 30.20 in 10.0 mi WNW 12.7 mph 20.7 mph N/A   Mostly Cloudy
3:53 AM 18.0 °F 2.6 °F 10.0 °F 71% 30.24 in 10.0 mi NW 17.3 mph 23.0 mph N/A   Mostly Cloudy
4:02 AM 17.6 °F 2.7 °F 8.6 °F 68% 30.20 in 10.0 mi NW 16.1 mph 24.2 mph N/A   Scattered Clouds
4:53 AM 14.0 °F -0.8 °F 7.0 °F 74% 30.28 in 10.0 mi NW 13.8 mph - N/A   Clear
5:24 AM 14.0 °F 1.2 °F 6.8 °F 73% 30.24 in 10.0 mi WNW 10.4 mph 19.6 mph N/A   Mostly Cloudy
5:53 AM 14.0 °F 2.9 °F 7.0 °F 74% 30.31 in 10.0 mi WNW 8.1 mph 18.4 mph N/A   Overcast
6:53 AM 14.0 °F 8.2 °F 8.1 °F 77% 30.35 in 7.0 mi WNW 3.5 mph - 0.00 in   Overcast
7:53 AM 15.1 °F 6.4 °F 9.0 °F 77% 30.37 in 6.0 mi WNW 5.8 mph - 0.00 in Snow Light Snow
8:53 AM 16.0 °F 10.4 °F 8.1 °F 71% 30.39 in 10.0 mi Variable 3.5 mph - 0.00 in   Mostly Cloudy
9:53 AM 17.1 °F 6.6 °F 7.0 °F 65% 30.41 in 10.0 mi West 8.1 mph - N/A   Scattered Clouds
10:53 AM 19.9 °F 9.3 °F 10.0 °F 65% 30.41 in 10.0 mi NW 9.2 mph - N/A   Partly Cloudy
11:16 AM 19.4 °F 9.5 °F 10.4 °F 68% 30.37 in 10.0 mi NW 8.1 mph 17.3 mph N/A   Mostly Cloudy
11:53 AM 19.9 °F 10.1 °F 10.9 °F 68% 30.41 in 10.0 mi West 8.1 mph - N/A   Mostly Cloudy
12:19 PM 21.2 °F 10.1 °F 10.4 °F 63% 30.34 in 10.0 mi WNW 10.4 mph - N/A   Scattered Clouds
12:53 PM 21.9 °F 11.7 °F 10.9 °F 63% 30.39 in 10.0 mi NW 9.2 mph - N/A   Clear
1:53 PM 23.0 °F 14.7 °F 10.0 °F 58% 30.38 in 10.0 mi WNW 6.9 mph - N/A   Clear
2:53 PM 25.0 °F 18.1 °F 12.0 °F 58% 30.39 in 10.0 mi NW 5.8 mph - N/A   Clear
3:53 PM 24.1 °F 17.0 °F 10.0 °F 55% 30.38 in 10.0 mi Variable 5.8 mph - N/A   Clear
4:53 PM 21.9 °F 14.5 °F 10.9 °F 63% 30.40 in 10.0 mi West 5.8 mph - N/A   Clear
5:53 PM 19.9 °F 13.4 °F 10.0 °F 65% 30.41 in 10.0 mi West 4.6 mph - N/A   Clear
6:53 PM 19.9 °F 14.9 °F 10.9 °F 68% 30.42 in 10.0 mi West 3.5 mph - N/A   Clear
7:53 PM 19.0 °F 13.9 °F 10.9 °F 71% 30.41 in 10.0 mi WNW 3.5 mph - N/A   Clear
8:53 PM 18.0 °F 12.7 °F 12.0 °F 78% 30.40 in 10.0 mi South 3.5 mph - N/A   Clear
9:53 PM 19.0 °F - 12.9 °F 77% 30.40 in 10.0 mi Calm Calm - N/A   Clear
10:53 PM 19.9 °F - 14.0 °F 78% 30.36 in 10.0 mi Calm Calm - N/A   Mostly Cloudy
11:53 PM 21.0 °F - 14.0 °F 74% 30.35 in 10.0 mi Calm Calm - N/A   Clear